Accueil
METAR-TAF:

METAR-TAF

Aéroports :

Lismore, Australie

latitude: 28-49-41S, longitude: 153-15-36E, altitude: 11 m

Observation

Le bulletin a été fait il y a 28 minutes, à 20:00 UTC
Vent 9 kt de sud-ouest
Température 17°C
Humidité 88%
Pression 1016 hPa
Visibilité 10 km ou plus
Ciel couvert à une hauteur de 2500 ft
Ciel couvert à une hauteur de 3000 ft

METAR: YLIS 222000Z AUTO 22009KT 9999 // OVC025 OVC030 17/15 Q1016

Heure: 06:28 (20:28 UTC)


TAF: absent

Observations et prévisions météorologiques de plus de 4000 aéroports (messages METAR et TAF).

Les stations disponibles sont représentées par des disques jaunes et rouges sur la carte.

Passer la souris dessus pour voir le nom de la station.

Cliquer dessus pour voir les observations et prévisions météorologiques.

Pour changer de carte: cliquez sur les boutons verts avec une croix noire pour zoomer, sur le bouton vert avec un tiret pour effectuer un zoom arrière, ou sur les flèches vertes pour les cartes adjacentes.


METAR-TAF: